Regional Weather Roundup
Issued by NWS Sterling, VA

Home | Current Version | Previous Version | Text Only | Print | Product List | Glossary Off
Versions: 1 2 3 4 5 6 7 8 9 10 11 12 13 14 15 16 17 18 19 20 21 22 23 24 25 26 27

000
ASUS41 KLWX 260811
RWRLWX

REGIONAL WEATHER ROUNDUP
NATIONAL WEATHER SERVICE BALTIMORE MD/WASHINGTON DC
400 AM EDT WED JUL 26 2017

Note: "FAIR" indicates few or no clouds below 12,000 feet
with no significant weather and/or obstructions to visibility.
 TC=TEMPERATURE CELSIUS

 * =Non NWS site. Station does not report precipitation (e.g. rain,
    snow, etc.), thunder, or fog.

DCZ001-MDZ009-015-VAZ040>042-051-053>054-260900-
WASHINGTON METRO

CITY           SKY/WX    TMP DP  RH WIND       PRES   REMARKS
WASHINGTON NAT PTCLDY    71  63  75 NE9       30.19S
DULLES         PTCLDY    62  59  90 W3        30.20R
ANDREWS AFB    CLEAR     64  60  88 N7        30.17F
FT BELVOIR     PTCLDY    64  62  93 CALM      30.18S
QUANTICO       PTCLDY    67  64  90 NW8       30.18F
COLLEGE PARK*  CLEAR     63  61  94 CALM      30.18S
LEESBURG*      CLEAR     63  63 100 CALM      30.21S
MANASSAS*      CLEAR     60  59  96 CALM      30.19S
GAITHERSBURG*  CLEAR     61  59  93 CALM      30.20F

$$

MDZ006>007-011-014-260900-
BALTIMORE METRO

CITY           SKY/WX    TMP DP  RH WIND       PRES   REMARKS
BWI AIRPORT    PTCLDY    63  62  97 CALM      30.18S
MD SCIENCE CTR   N/A     71  65  81 MISG      30.19S
MARTIN STATE   MOCLDY    68  68 100 CALM      30.19S
ANNAPOLIS      CLOUDY    72  71  97 CALM      30.16F
FORT MEADE*    CLEAR     61  59  94 CALM      30.21S

$$

MDZ012-015-019>023-260900-
MARYLAND EASTERN SHORE

CITY           SKY/WX    TMP DP  RH WIND       PRES   REMARKS
OCEAN CITY     MOCLDY    71  68  90 E3        30.17S
SALISBURY      CLEAR     67  66  97 CALM      30.17S
BAY BRIDGE AP* PTCLDY    70  66  88 E5        30.17F
CAMBRIDGE*     CLEAR     66  66 100 CALM      30.16F
EASTON*        MOCLDY    69  66  91 CALM      30.21F

$$

MDZ017>025-260900-
SOUTHERN MARYLAND

CITY           SKY/WX    TMP DP  RH WIND       PRES   REMARKS
PATUXENT RIVER MOCLDY    72  69  90 E7        30.15F
ST INIGOES     MOCLDY    71  68  90 E3        30.15F
LEONARDTOWN*   MOCLDY    68  64  88 CALM      30.18F

$$

MDZ003>005-260900-
NORTH CENTRAL MARYLAND

CITY           SKY/WX    TMP DP  RH WIND       PRES   REMARKS
FREDERICK*     FOG       61  61 100 CALM      30.23S VSB 1
HAGERSTOWN APT CLEAR     65  61  87 W3        30.20F
WESTMINSTER*   PTCLDY    63  61  94 CALM      30.21S

$$

MDZ501>502-260900-
WESTERN MARYLAND

CITY           SKY/WX    TMP DP  RH WIND       PRES   REMARKS
OAKLAND*       NOT AVBL
CUMBERLAND*    MOCLDY    59  59 100 CALM      30.26S VSB<1/4

$$

VAZ025>031-260900-
SHENANDOAH VALLEY

CITY           SKY/WX    TMP DP  RH WIND       PRES   REMARKS
WINCHESTER*    CLEAR     55  55 100 CALM      30.20F
FRONT ROYAL*   PTCLDY    57  57 100 CALM      30.20S
LURAY*         CLEAR     59  59 100 SE3       30.21S
NEW MARKET*    MOCLDY    61  59  92 CALM      30.21S
STAUNTON*      PTCLDY    58  56  93 CALM      30.24S
WAYNESBORO*    PTCLDY    59  59  99 SW3       30.23F

$$

WVZ021-048>050-054>055-260900-
EASTERN WEST VIRGINIA PANHANDLE

CITY           SKY/WX    TMP DP  RH WIND       PRES   REMARKS
MARTINSBURG    CLEAR     60  57  89 NE3       30.19F
PETERSBURG*    PTCLDY    58  57  96 CALM      30.23S

$$

VAZ036>039-050-260900-
CENTRAL FOOTHILLS

CITY           SKY/WX    TMP DP  RH WIND       PRES   REMARKS
CHARLOTTESVILL PTCLDY    64  61  90 CALM      30.20S
CULPEPER*      CLEAR     62  61  96 CALM      30.20R
ORANGE*        CLOUDY    64  59  82 N3        30.20S
GORDONSVILLE*  CLEAR     62  61  97 CALM      30.19S
WARRENTON*     MOCLDY    61  58  90 CALM      30.19R

$$

VAZ055>057-260900-
NORTH AND CENTRAL PIEDMONT

CITY           SKY/WX    TMP DP  RH WIND       PRES   REMARKS
FREDERICKSBRG* PTCLDY    68  63  83 CALM      30.17S
STAFFORD*      PTCLDY    60  60 100 W3        30.22S

$$

NCZ024-NYZ072-PAZ021-071-VAZ022-071-260900-
OTHER REGIONAL OBSERVATIONS

CITY           SKY/WX    TMP DP  RH WIND       PRES   REMARKS
NEW YORK CITY  CLOUDY    66  57  72 NE6       30.24F
PHILADELPHIA   CLOUDY    67  62  84 NE5       30.20F
PITTSBURGH     CLEAR     60  59  96 CALM      30.18F
ROANOKE        CLOUDY    70  60  70 SE3       30.23F
RICHMOND       PTCLDY    68  64  87 NE6       30.16F
RALEIGH        PTCLDY    72  68  87 NE5       30.15R

$$

ANZ530>537-260900-
MARINE OBSERVATIONS

STATION/POSITION TIME  TEMP    WIND        PRES
                       AIR SEA DIR/SP/G
                 (UTC) (F)     (DEG/KT/KT) (MB)
THOMAS PT LIGHT  0800   72 81  120/  9/ 11   N/A
BALT KEY BRIDGE  0748   69      30/  8/ 10 1021.6F
COVE POINT       0748   72     120/  8/ 10 1022.0F
LEWISETTA        0748   76 83  150/  7/ 10 1020.9F
SOLOMONS ISLAND  0748   74 83   80/  6/  9   N/A
PINEY POINT      0742           80/  4/  5   N/A

$$





USA.gov is the U.S. government's official web portal to all federal, state and local government web resources and services.